Tracking 19800 objects as of 24-Jul-2019
HD Live streaming from Space Station
objects crossing your sky now

OV1-5 DEB

Track OV1-5 DEB now!
10-day predictions


NORAD ID: 3611
Int'l Code: 1966-025E
Perigee: 588.1 km
Apogee: 607.0 km
Inclination: 144.6 °
Period: 96.5 minutes
Semi major axis: 6968 km
RCS: 0.0246 m2 (small)
Launch date: March 30, 1966
Source: United States (US)
Launch site: AIR FORCE WESTERN TEST RANGE (AFWTR)

Note: This is SATELLITE DEBRIS
aabbcc
Your satellite tracking list
Your tracking list is empty




NASA's NSSDC Master Catalog

Two Line Element Set (TLE):
1  3611U 66025E   19204.16972937  .00001140  00000-0  64839-4 0  9990
2  3611 144.5597 337.1172 0013544 205.2805 154.7244 14.92405351758169
Source of the keplerian elements: AFSPC